sat.trackr.live / text

‹ back to catalog

SHIJIAN-26 (SJ-26)

NORAD 64199 · 2025-115A

PAYLOAD ACTIVE UNKNOWN

§ Identity

Operator
Country
PRC
Launch date
2025-05-29
Launch site
JSC
Launch vehicle
Mass (kg)
RCS (m²)

External: N2YO · Heavens-Above · Gunter

§ Orbital elements

Epoch: 2026-09-21T23:17:15.927072Z

Period
94.46 min
Inclination
97.4492°
Eccentricity
0.0018843
Mean motion
15.24502019 rev/d
Perigee alt
479.3 km
Apogee alt
505.2 km
Semi-major
6,870.4 km
B*
1.3760e-4
RAAN
342.9337°
Arg perigee
17.4044°
Mean anomaly
342.7836°
Rev number
7,318

§ Raw data

SHIJIAN-26 (SJ-26)1 64199U 25115A   26264.97032323  .00003325  00000+0  13760-3 0  99942 64199  97.4492 342.9337 0018843  17.4044 342.7836 15.24502019 73182

JSON: /api/v1/satellites/64199 · /tle

For live sub-satellite position, see the globe view (requires WebGL).

§ Visibility from observer

Set your observer location to see the next 7 days of passes ≥ 10°. The values pass through the URL so the page stays shareable.

No JS? Fill the form by hand. The geolocation button needs JavaScript.